Location: �chenoz-la-M�line
(47.6009°N, 6.1354°E)
Time: 15:17:57
(UTC+00:00)

Cosmos 1980 - Pass Details

Date: 10 December 2021
Orbit: 837 x 849 km, 71.0° (Epoch: 20 January)

Event Time Altitude Azimuth Distance (km) Brightness Sun altitude
Rises 19:08:23 0° 335° (NNW) 3,417 7.2 -33.4°
Reaches altitude 10° 19:10:57 10° 342° (NNW) 2,480 6.3 -33.8°
Enters shadow 19:11:53 15° 346° (NNW) 2,160 5.9 -34.0°
